Weather History for Avoca, PA

Change the Weather History Date:

Monday, March 11, 2013

  Actual Average Record
Temperature  
Mean Temperature 46 °F 35 °F  
Max Temperature 54 °F 44 °F 71 °F (1977)
Min Temperature 37 °F 26 °F 5 °F (1996)
Degree Days  
Heating Degree Days 19 30  
Month to date heating degree days 332 347  
Since 1 July heating degree days 4556 4953  
Cooling Degree Days 0 0  
Month to date cooling degree days 0 0  
Year to date cooling degree days 0 0  
Moisture  
Dew Point 34 °F    
Average Humidity 61    
Maximum Humidity 77    
Minimum Humidity 45    
Precipitation  
Precipitation 0.00 in 0.07 in 1.10 in (1952)
Month to date precipitation 0.11 0.80  
Year to date precipitation 3.44 5.20  
Sea Level Pressure  
Sea Level Pressure 30.08 in    
Wind  
Wind Speed 10 mph (SSW)    
Max Wind Speed 26 mph    
Max Gust Speed 41 mph    
Visibility 10 miles    
Events      
T = Trace of Precipitation, MM = Missing Value Source: NWS Daily Summary

Daily Weather History Graph

Daily Weather History Graph

Search for Another Location

Airport:

Trip Planner

Search our weather history database for the weather conditions in past years. The results will help you decide how hot, cold, wet, or windy it might be!

Date:

Astronomy

Mar. 11, 2013 Rise Set
Actual Time 7:20 AM EDT 7:05 PM EDT
Civil Twilight 6:53 AM EDT 7:32 PM EDT
Nautical Twilight 6:21 AM EDT 8:04 PM EDT
Astronomical Twilight 5:49 AM EDT 8:37 PM EDT
Moon 6:53 AM EDT (3/11) 7:15 PM EDT (3/11)
Length of Visible Light 12h 39m
Length of Day
11h 44m
Waning Crescent, 0% of the Moon is Illuminated
Mar 11
Waning Crescent
Mar 11
New
Mar 19
First Quarter
Mar 27
Full
Apr 3
Last Quarter

Hourly Weather History & Observations

Time (EDT) Temp. Windchill Dew Point Humidity Pressure Visibility Wind Dir Wind Speed Gust Speed Precip Events Conditions
12:54 AM 44.6 °F 42.2 °F 24.8 °F 46% 30.18 in 10.0 mi SSW 4.6 mph - N/A   Clear
1:54 AM 44.1 °F 41.5 °F 28.0 °F 53% 30.18 in 10.0 mi West 4.6 mph - N/A   Clear
2:54 AM 45.0 °F 41.8 °F 28.0 °F 52% 30.17 in 10.0 mi WSW 5.8 mph 20.7 mph N/A   Clear
3:54 AM 43.0 °F 38.2 °F 28.9 °F 58% 30.16 in 10.0 mi SSW 8.1 mph - N/A   Clear
4:54 AM 42.1 °F 38.4 °F 28.9 °F 60% 30.14 in 10.0 mi SW 5.8 mph - N/A   Clear
5:54 AM 41.0 °F 39.0 °F 28.0 °F 60% 30.14 in 10.0 mi Variable 3.5 mph - N/A   Clear
6:54 AM 37.9 °F 32.7 °F 30.0 °F 73% 30.14 in 10.0 mi WSW 6.9 mph - N/A   Clear
7:54 AM 37.9 °F 33.5 °F 30.9 °F 76% 30.14 in 10.0 mi SW 5.8 mph - N/A   Clear
8:54 AM 42.1 °F 39.2 °F 32.0 °F 67% 30.14 in 10.0 mi Variable 4.6 mph - N/A   Clear
9:54 AM 44.1 °F 39.5 °F 33.1 °F 65% 30.15 in 10.0 mi SSW 8.1 mph - N/A   Clear
10:54 AM 45.0 °F 39.7 °F 33.1 °F 63% 30.15 in 10.0 mi SW 10.4 mph - N/A   Partly Cloudy
11:54 AM 46.9 °F - 34.0 °F 61% 30.13 in 10.0 mi South 8.1 mph - N/A   Mostly Cloudy
12:54 PM 48.9 °F - 32.0 °F 52% 30.12 in 10.0 mi SSW 9.2 mph - N/A   Partly Cloudy
1:54 PM 50.0 °F - 32.0 °F 50% 30.09 in 10.0 mi SSW 10.4 mph 25.3 mph N/A   Mostly Cloudy
2:54 PM 53.1 °F - 32.0 °F 45% 30.06 in 10.0 mi SSW 10.4 mph - N/A   Partly Cloudy
3:54 PM 53.1 °F - 33.1 °F 47% 30.03 in 10.0 mi South 10.4 mph - N/A   Partly Cloudy
4:54 PM 52.0 °F - 36.0 °F 54% 30.01 in 10.0 mi South 9.2 mph - N/A   Overcast
5:54 PM 52.0 °F - 35.1 °F 53% 30.00 in 10.0 mi South 10.4 mph 21.9 mph N/A   Mostly Cloudy
6:54 PM 51.8 °F - 37.4 °F 58% 30.00 in 10.0 mi South 9.2 mph - N/A   Mostly Cloudy
7:54 PM 51.1 °F - 37.0 °F 59% 30.02 in 10.0 mi South 9.2 mph - N/A   Mostly Cloudy
8:54 PM 51.1 °F - 37.9 °F 61% 29.99 in 10.0 mi South 9.2 mph 20.7 mph N/A   Clear
9:54 PM 51.1 °F - 39.9 °F 66% 29.97 in 10.0 mi SSE 17.3 mph 26.5 mph N/A   Mostly Cloudy
10:54 PM 51.1 °F - 44.1 °F 77% 29.93 in 10.0 mi SSE 19.6 mph 34.5 mph N/A   Scattered Clouds
11:54 PM 53.1 °F - 44.1 °F 71% 29.89 in 10.0 mi South 20.7 mph 39.1 mph N/A   Overcast